When you browse on this site, cookies collect data to enhance your experience and personalize the content and advertising you see.
Visit our Privacy Policy to learn more. By continuing to use the site, you agree to this use of cookies and data.
  • In Latvia
  • List of Countries
  • For 7 days
  • Water Temperature
  • Satellite Maps
  • Weather Map
  • Weather Widgets
  • user-avatar
    Login

    Hourly Weather Herāt

    Today, 21 May, Tuesday

    Time Temperature Precipitation Wind Pressure Humidity
    00:00 +27°C° 0 mm 3 mps 678 mmHg 16%
    01:00 +26°C° 0 mm 3 mps 678 mmHg 17%
    02:00 +26°C° 0 mm 3 mps 678 mmHg 17%
    03:00 +25°C° 0 mm 3 mps 678 mmHg 18%
    04:00 +25°C° 0 mm 3 mps 678 mmHg 19%
    05:00 +26°C° 0 mm 3 mps 678 mmHg 18%
    06:00 +27°C° 0 mm 3 mps 679 mmHg 17%
    07:00 +28°C° 0 mm 3 mps 680 mmHg 16%
    08:00 +30°C° 0 mm 2 mps 680 mmHg 15%
    09:00 +31°C° 0 mm 2 mps 680 mmHg 14%
    10:00 +32°C° 0 mm 2 mps 680 mmHg 14%
    11:00 +34°C° 0 mm 2 mps 680 mmHg 13%
    12:00 +35°C° 0 mm 2 mps 680 mmHg 13%
    13:00 +34°C° 0 mm 1 mps 680 mmHg 12%
    14:00 +35°C° 0 mm 2 mps 679 mmHg 12%
    15:00 +35°C° 0 mm 3 mps 679 mmHg 12%
    16:00 +36°C° 0 mm 4 mps 679 mmHg 12%
    17:00 +34°C° 0 mm 4 mps 679 mmHg 15%
    18:00 +33°C° 0 mm 3 mps 679 mmHg 18%
    19:00 +31°C° 0 mm 3 mps 679 mmHg 21%
    20:00 +30°C° 0 mm 4 mps 679 mmHg 23%
    21:00 +29°C° 0 mm 5 mps 679 mmHg 25%
    22:00 +29°C° 0 mm 5 mps 679 mmHg 27%
    23:00 +28°C° 0 mm 7 mps 679 mmHg 29%

    Tomorrow, 22 May, Wednesday

    Time Temperature Precipitation Wind Pressure Humidity
    00:00 +27°C° 0 mm 8 mps 679 mmHg 31%
    01:00 +27°C° 0 mm 9 mps 679 mmHg 33%
    02:00 +26°C° 0 mm 9 mps 679 mmHg 34%
    03:00 +26°C° 0 mm 9 mps 678 mmHg 35%
    04:00 +24°C° 0 mm 8 mps 678 mmHg 37%
    05:00 +24°C° 0 mm 8 mps 678 mmHg 37%
    06:00 +24°C° 0 mm 7 mps 679 mmHg 38%
    07:00 +24°C° 0 mm 7 mps 679 mmHg 38%
    08:00 +26°C° 0 mm 7 mps 679 mmHg 35%
    09:00 +27°C° 0 mm 7 mps 679 mmHg 33%
    10:00 +28°C° 0 mm 7 mps 679 mmHg 30%
    11:00 +29°C° 0 mm 7 mps 679 mmHg 28%
    12:00 +29°C° 0 mm 8 mps 679 mmHg 26%
    13:00 +31°C° 0 mm 8 mps 679 mmHg 25%
    14:00 +31°C° 0 mm 9 mps 679 mmHg 24%
    15:00 +31°C° 0 mm 9 mps 678 mmHg 23%
    16:00 +31°C° 0 mm 10 mps 678 mmHg 22%
    17:00 +29°C° 0 mm 11 mps 678 mmHg 24%
    18:00 +27°C° 0 mm 12 mps 678 mmHg 25%
    19:00 +24°C° 0 mm 14 mps 678 mmHg 27%
    20:00 +23°C° 0 mm 13 mps 679 mmHg 25%
    21:00 +22°C° 0 mm 13 mps 679 mmHg 22%
    22:00 +19°C° 0 mm 12 mps 679 mmHg 20%
    23:00 +18°C° 0 mm 11 mps 678 mmHg 21%

    Day after tomorrow, 23 May, Thursday

    Time Temperature Precipitation Wind Pressure Humidity
    00:00 +17°C° 0 mm 10 mps 678 mmHg 23%
    01:00 +16°C° 0 mm 9 mps 678 mmHg 24%
    02:00 +16°C° 0 mm 8 mps 678 mmHg 28%
    03:00 +15°C° 0 mm 8 mps 677 mmHg 32%
    04:00 +14°C° 0 mm 7 mps 677 mmHg 35%
    05:00 +15°C° 0 mm 7 mps 677 mmHg 34%
    06:00 +15°C° 0 mm 7 mps 678 mmHg 34%
    07:00 +16°C° 0 mm 6 mps 678 mmHg 33%
    08:00 +19°C° 0 mm 6 mps 678 mmHg 30%
    09:00 +21°C° 0 mm 6 mps 678 mmHg 27%
    10:00 +22°C° 0 mm 6 mps 678 mmHg 25%
    11:00 +23°C° 0 mm 6 mps 678 mmHg 24%
    12:00 +25°C° 0 mm 5 mps 678 mmHg 23%
    13:00 +26°C° 0 mm 5 mps 678 mmHg 21%
    14:00 +26°C° 0 mm 5 mps 678 mmHg 21%
    15:00 +26°C° 0 mm 5 mps 678 mmHg 21%
    16:00 +26°C° 0 mm 5 mps 677 mmHg 20%
    17:00 +24°C° 0 mm 6 mps 677 mmHg 22%
    18:00 +23°C° 0 mm 6 mps 677 mmHg 23%
    19:00 +22°C° 0 mm 6 mps 678 mmHg 25%
    20:00 +21°C° 0 mm 5 mps 678 mmHg 25%
    21:00 +20°C° 0 mm 4 mps 678 mmHg 26%
    22:00 +19°C° 0 mm 3 mps 678 mmHg 27%
    23:00 +19°C° 0 mm 2 mps 678 mmHg 29%

    24 May, Friday

    Time Temperature Precipitation Wind Pressure Humidity
    00:00 +18°C° 0 mm 2 mps 678 mmHg 30%
    01:00 +19°C° 0 mm 1 mps 677 mmHg 32%
    02:00 +18°C° 0 mm 1 mps 677 mmHg 32%
    03:00 +18°C° 0 mm 1 mps 677 mmHg 32%
    04:00 +18°C° 0 mm 1 mps 677 mmHg 33%
    05:00 +19°C° 0 mm 1 mps 678 mmHg 31%
    06:00 +20°C° 0 mm 1 mps 678 mmHg 28%
    07:00 +22°C° 0 mm 1 mps 679 mmHg 26%
    08:00 +23°C° 0 mm 1 mps 679 mmHg 24%
    09:00 +24°C° 0 mm 1 mps 679 mmHg 22%
    10:00 +26°C° 0 mm 1 mps 680 mmHg 21%
    11:00 +27°C° 0 mm 2 mps 680 mmHg 20%
    12:00 +28°C° 0 mm 2 mps 680 mmHg 19%
    13:00 +29°C° 0 mm 3 mps 679 mmHg 19%
    14:00 +29°C° 0 mm 3 mps 679 mmHg 18%
    15:00 +30°C° 0 mm 3 mps 679 mmHg 18%
    16:00 +30°C° 0 mm 4 mps 679 mmHg 18%
    17:00 +29°C° 0 mm 4 mps 679 mmHg 20%
    18:00 +28°C° 0 mm 4 mps 680 mmHg 21%
    19:00 +27°C° 0 mm 4 mps 680 mmHg 23%
    20:00 +26°C° 0 mm 5 mps 680 mmHg 24%
    21:00 +26°C° 0 mm 5 mps 681 mmHg 26%
    22:00 +24°C° 0 mm 6 mps 681 mmHg 27%
    23:00 +23°C° 0 mm 5 mps 681 mmHg 29%

    25 May, Saturday

    Time Temperature Precipitation Wind Pressure Humidity
    00:00 +22°C° 0 mm 5 mps 681 mmHg 30%
    01:00 +22°C° 0 mm 4 mps 681 mmHg 32%
    02:00 +21°C° 0 mm 4 mps 681 mmHg 33%
    03:00 +21°C° 0 mm 4 mps 681 mmHg 35%
    04:00 +20°C° 0 mm 3 mps 681 mmHg 37%
    05:00 +21°C° 0 mm 4 mps 681 mmHg 34%
    06:00 +22°C° 0 mm 4 mps 682 mmHg 32%
    07:00 +23°C° 0 mm 4 mps 682 mmHg 30%
    08:00 +25°C° 0 mm 5 mps 682 mmHg 28%
    09:00 +26°C° 0 mm 5 mps 683 mmHg 25%
    10:00 +28°C° 0 mm 5 mps 683 mmHg 23%
    11:00 +28°C° 0 mm 5 mps 682 mmHg 21%
    12:00 +29°C° 0 mm 6 mps 682 mmHg 20%
    13:00 +30°C° 0 mm 6 mps 682 mmHg 19%
    14:00 +30°C° 0 mm 7 mps 682 mmHg 19%
    15:00 +31°C° 0 mm 8 mps 681 mmHg 20%
    16:00 +29°C° 0 mm 8 mps 681 mmHg 21%
    17:00 +28°C° 0 mm 8 mps 681 mmHg 23%
    18:00 +27°C° 0 mm 8 mps 681 mmHg 25%
    19:00 +26°C° 0 mm 7 mps 681 mmHg 27%
    20:00 +24°C° 0 mm 6 mps 681 mmHg 28%
    21:00 +23°C° 0 mm 5 mps 681 mmHg 29%
    22:00 +23°C° 0 mm 4 mps 681 mmHg 31%
    23:00 +22°C° 0 mm 4 mps 681 mmHg 32%

    26 May, Sunday

    Time Temperature Precipitation Wind Pressure Humidity
    00:00 +21°C° 0 mm 3 mps 680 mmHg 34%
    01:00 +20°C° 0 mm 3 mps 680 mmHg 35%
    02:00 +20°C° 0 mm 3 mps 680 mmHg 35%
    03:00 +20°C° 0 mm 3 mps 680 mmHg 36%
    04:00 +19°C° 0 mm 3 mps 680 mmHg 36%
    05:00 +20°C° 0 mm 3 mps 680 mmHg 33%
    06:00 +21°C° 0 mm 3 mps 680 mmHg 30%
    07:00 +23°C° 0 mm 4 mps 681 mmHg 28%
    08:00 +25°C° 0 mm 4 mps 681 mmHg 24%
    09:00 +27°C° 0 mm 4 mps 681 mmHg 20%
    10:00 +28°C° 0 mm 4 mps 682 mmHg 16%
    11:00 +29°C° 0 mm 5 mps 681 mmHg 14%
    12:00 +30°C° 0 mm 5 mps 681 mmHg 13%
    13:00 +32°C° 0 mm 6 mps 681 mmHg 12%
    14:00 +33°C° 0 mm 6 mps 680 mmHg 11%
    15:00 +33°C° 0 mm 7 mps 680 mmHg 11%
    16:00 +33°C° 0 mm 7 mps 680 mmHg 11%
    17:00 +30°C° 0 mm 6 mps 680 mmHg 12%
    18:00 +29°C° 0 mm 6 mps 680 mmHg 13%
    19:00 +28°C° 0 mm 5 mps 680 mmHg 15%
    20:00 +27°C° 0 mm 5 mps 680 mmHg 16%
    21:00 +26°C° 0 mm 4 mps 680 mmHg 17%
    22:00 +25°C° 0 mm 4 mps 680 mmHg 18%
    23:00 +23°C° 0 mm 4 mps 680 mmHg 18%
    Show more